WetterOnline ( http://www.wetteronline.de )

Wetter aktuell Grabenstätt

Aktuelles Wetter: Chieming (553m)

6-stündlich | Neueste Meldungen
Ortszeit Temperatur Wetter
Mi, 20.02. 7:00 2.0° C bewölkt
Mi, 20.02. 1:00 5.4° C Sprühregen
Di, 19.02. 19:00 8.3° C bedeckt
Di, 19.02. 13:00 10.2° C leicht bewölkt
Di, 19.02. 7:00 -0.7° C wolkig
Di, 19.02. 1:00 -0.0° C wolkenlos
Mo, 18.02. 19:00 4.9° C wolkenlos
Mo, 18.02. 13:00 8.2° C wolkenlos
Ortszeit Temperatur Wetter
Mi, 20.02. 10:30 4.5° C bedeckt
Mi, 20.02. 10:20 4.5° C bedeckt
Mi, 20.02. 10:10 4.2° C bedeckt
Mi, 20.02. 10:00 4.0° C bedeckt
Mi, 20.02. 9:50 4.0° C bedeckt
Mi, 20.02. 9:40 4.0° C bedeckt
Mi, 20.02. 9:30 3.2° C bedeckt
Mi, 20.02. 9:00 3.2° C bewölkt
Mi, 20.02. 8:30 2.7° C bewölkt
Mi, 20.02. 8:00 2.3° C bedeckt
Mi, 20.02. 7:30 2.6° C bedeckt
Ortszeit Relative Feuchte Sichtweite
Mi, 20.02. 7:00 95% 4.9 km
Mi, 20.02. 1:00 76% 14 km
Di, 19.02. 19:00 55% 21 km
Di, 19.02. 13:00 43% 13 km
Di, 19.02. 7:00 70% 30 km
Di, 19.02. 1:00 72% 30 km
Mo, 18.02. 19:00 47% 30 km
Mo, 18.02. 13:00 41% 19 km
Ortszeit Relative Feuchte Sichtweite
Mi, 20.02. 10:30 78% 13 km
Mi, 20.02. 10:20 78% -
Mi, 20.02. 10:10 78% -
Mi, 20.02. 10:00 80% 12 km
Mi, 20.02. 9:50 80% -
Mi, 20.02. 9:40 84% -
Mi, 20.02. 9:30 90% 9 km
Mi, 20.02. 9:00 87% 11 km
Mi, 20.02. 8:30 89% 11 km
Mi, 20.02. 8:00 92% 6 km
Mi, 20.02. 7:30 93% 7 km
Ortszeit Niederschlagsmenge Niederschlagsart
Mi, 20.02. 7:00 0.3 l/m2 in 12 Std. Regen
Mi, 20.02. 1:00 0.1 l/m2 in 6 Std. Regen
Di, 19.02. 19:00 0.0 l/m2 in 12 Std. -
Di, 19.02. 13:00 0.0 l/m2 in 6 Std. -
Di, 19.02. 7:00 0.0 l/m2 in 12 Std. -
Di, 19.02. 1:00 0.0 l/m2 in 6 Std. -
Mo, 18.02. 19:00 0.0 l/m2 in 12 Std. -
Mo, 18.02. 13:00 0.0 l/m2 in 6 Std. -
Ortszeit Niederschlagsmenge Niederschlagsart
Mi, 20.02. 10:30 0.0 l/m2 in 1 Std. -
Mi, 20.02. 10:20 keine Meldung -
Mi, 20.02. 10:10 keine Meldung -
Mi, 20.02. 10:00 0.0 l/m2 in 1 Std. -
Mi, 20.02. 9:50 keine Meldung -
Mi, 20.02. 9:40 keine Meldung -
Mi, 20.02. 9:30 0.0 l/m2 in 1 Std. -
Mi, 20.02. 9:00 0.0 l/m2 in 1 Std. -
Mi, 20.02. 8:30 0.0 l/m2 in 1 Std. -
Mi, 20.02. 8:00 0.0 l/m2 in 1 Std. -
Mi, 20.02. 7:30 0.0 l/m2 in 1 Std. -
Ortszeit Stärke Spitze Richtung
km/h Bft. km/h Grad Sektor
Mi, 20.02. 7:00 4 1 11 70° O
Mi, 20.02. 1:00 4 1 14 220° SW
Di, 19.02. 19:00 7 2 29 200° S
Di, 19.02. 13:00 14 3 22 240° SW
Di, 19.02. 7:00 7 2 22 180° S
Di, 19.02. 1:00 2 1 9 160° S
Mo, 18.02. 19:00 6 1 9 110° O
Mo, 18.02. 13:00 4 1 11 300° NW
Ortszeit Stärke Spitze Richtung
km/h Bft. km/h Grad Sektor
Mi, 20.02. 10:30 4 1 14 210° SW
Mi, 20.02. 10:20 4 1 - 210° SW
Mi, 20.02. 10:10 7 2 - 180° S
Mi, 20.02. 10:00 7 2 11 190° S
Mi, 20.02. 9:50 7 2 - 190° S
Mi, 20.02. 9:40 7 2 - 180° S
Mi, 20.02. 9:30 7 2 11 180° S
Mi, 20.02. 9:00 0 0 11 - -
Mi, 20.02. 8:30 7 2 11 200° S
Mi, 20.02. 8:00 4 1 7 180° S
Mi, 20.02. 7:30 0 0 7 - -
Ortszeit Untergrenze Bedeckung Gattung
total tief tief mittel hoch
Mi, 20.02. 7:00 1080 m 7/8 7/8 - - -
Mi, 20.02. 1:00 870 m 8/8 8/8 - - -
Di, 19.02. 19:00 1800 m 8/8 8/8 - - -
Di, 19.02. 13:00 9000 m 4/8 0/8 - - -
Di, 19.02. 7:00 10500 m 7/8 0/8 - - -
Di, 19.02. 1:00 - 0/8 0/8 - - -
Mo, 18.02. 19:00 - 0/8 0/8 - - -
Mo, 18.02. 13:00 - 0/8 0/8 - - -
Ortszeit Bedeckungsgrad in Achtel und Wolkenuntergrenze
Mi, 20.02. 10:30 8(1110m)
Mi, 20.02. 10:20 8(1110m)
Mi, 20.02. 10:10 8(1140m)
Mi, 20.02. 10:00 8(1080m)
Mi, 20.02. 9:50 8(1080m)
Mi, 20.02. 9:40 8(1020m)
Mi, 20.02. 9:30 8(1020m)
Mi, 20.02. 9:00 5(1020m) 7(2100m) 7(8700m)
Mi, 20.02. 8:30 2(1800m) 7(2100m) 8(8100m)
Mi, 20.02. 8:00 8(1080m) 7(1800m) 8(2100m)
Mi, 20.02. 7:30 8(1020m)
Ortszeit Luftdruck NN (hPa) Tendenz (hPa in 3 Std.)
Mi, 20.02. 7:00 1025 + 0,4
Mi, 20.02. 1:00 1024 + 0,6
Di, 19.02. 19:00 1021 + 0,4
Di, 19.02. 13:00 1021 - 0,8
Di, 19.02. 7:00 1024 + 0,8
Di, 19.02. 1:00 1022 + 0,4
Mo, 18.02. 19:00 1021 - 0,5
Mo, 18.02. 13:00 1022 - 1,1
Ortszeit Luftdruck NN (hPa) Tendenz (hPa in 3 Std.)
Mi, 20.02. 10:30 1026 + 1,0
Mi, 20.02. 10:20 1026 keine Meldung
Mi, 20.02. 10:10 1026 keine Meldung
Mi, 20.02. 10:00 1026 + 1,2
Mi, 20.02. 9:50 1026 keine Meldung
Mi, 20.02. 9:40 1026 keine Meldung
Mi, 20.02. 9:30 1026 + 1,5
Mi, 20.02. 9:00 1026 + 1,1
Mi, 20.02. 8:30 1026 + 0,9
Mi, 20.02. 8:00 1026 + 1,0
Mi, 20.02. 7:30 1026 + 0,8
Ortszeit Schneehöhe (cm)
Mi, 20.02. 7:00 -
Mi, 20.02. 1:00 -
Di, 19.02. 19:00 -
Di, 19.02. 13:00 -
Di, 19.02. 7:00 0
Di, 19.02. 1:00 0
Mo, 18.02. 19:00 0
Mo, 18.02. 13:00 0
Ortszeit Schneehöhe (cm)
Mi, 20.02. 10:30 -
Mi, 20.02. 10:20 -
Mi, 20.02. 10:10 -
Mi, 20.02. 10:00 -
Mi, 20.02. 9:50 -
Mi, 20.02. 9:40 -
Mi, 20.02. 9:30 -
Mi, 20.02. 9:00 -
Mi, 20.02. 8:30 -
Mi, 20.02. 8:00 -
Mi, 20.02. 7:30 -
Link zu dieser Seite / Seite empfehlen

Das Wetter in ...